Overview Statistics Trail Chart Weather Telemetry Raw packets
 

This is the latest recevied weather packets stored in our database for station/object DL2AKT-20. If no packets are shown the sender has not sent any weather packets the latest 10 day(s).

<< 2 3 4 5 6 7 8 >>
Time Temp. Humidity Pressure Rain* Wind** Luminosity Snow
1777960166 17.78° C 52% 1013.4 hPa - - - -
1777959266 17.78° C 54% 1013.4 hPa - - - -
1777958366 16.11° C 59% 1013.1 hPa - - - -
1777957466 16.11° C 59% 1013.1 hPa - - - -
1777956566 16.67° C 57% 1013.2 hPa - - - -
1777955666 17.22° C 55% 1013.4 hPa - - - -
1777954766 17.78° C 52% 1013.5 hPa - - - -
1777953866 17.78° C 52% 1013.5 hPa - - - -
1777952966 17.78° C 51% 1013.8 hPa - - - -
1777952066 18.89° C 47% 1013.9 hPa - - - -
1777951166 18.89° C 46% 1014.1 hPa - - - -
1777950266 18.89° C 46% 1014.2 hPa - - - -
1777949366 18.89° C 47% 1014.3 hPa - - - -
1777948468 18.89° C 46% 1014.5 hPa - - - -
1777947565 18.89° C 46% 1014.7 hPa - - - -
1777946665 18.89° C 45% 1014.6 hPa - - - -
1777945764 19.44° C 45% 1014.5 hPa - - - -
1777944865 19.44° C 45% 1014.6 hPa - - - -
1777943964 18.89° C 46% 1014.6 hPa - - - -
1777943064 19.44° C 45% 1014.7 hPa - - - -
1777942976 19.44° C 46% 1014.7 hPa - - - -
1777942076 19.44° C 45% 1014.9 hPa - - - -
1777941176 18.89° C 46% 1014.9 hPa - - - -
1777940276 20° C 44% 1015 hPa - - - -
1777939376 19.44° C 45% 1015.2 hPa - - - -

* Rain since midnight (hover to see other rain measurements)
** Current wind speed in m/s (hover to see current wind gust speed)